Location: Newark
(38.7000°N, 9.1833°W)
Time: 20:18:58
(UTC+00:00)

Envisat - Pass Details

Date: 23 October 2019
Orbit: 764 x 766 km, 98.1° (Epoch: 21 November)

Event Time Altitude Azimuth Distance (km) Brightness Sun altitude
Rises 06:04:42 0° 37° (NE) 3,237 6.7 -10.2°
Reaches altitude 10° 06:08:50 10° 70° (ENE) 2,303 6.6 -9.4°
Maximum altitude 06:10:29 11° 89° (E) 2,198 6.9 -9.1°
Drops below altitude 10° 06:12:08 10° 109° (ESE) 2,298 7.0 -8.8°
Sets 06:16:13 0° 142° (SE) 3,216 7.0 -8.0°
